Have a Safe July 4th! 

Flight Track Log - Related Links

Times and Time Zones

All times are in EDT time to prevent confusion due to time zone crossing. See the UAL515 flight status page for this flight to view local times or setup timezone preferences in your user account.

Time Position Orientation Groundspeed Altitude Reporting Facility
EDT Latitude Longitude Course Direction KTS MPH feet Rate Location/Type
Tue 02:03:19 PM 40.6667 -74.1833 194° South 161 185 1,200  Level New York TRACON
Tue 02:04:19 PM 40.6167 -74.2000 194° South 219 252 2,600 2,050 Climbing New York TRACON
Tue 02:05:19 PM 40.6333 -74.2833 285° West 263 303 5,300 3,051 Climbing New York TRACON
Tue 02:06:17 PM 40.6461 -74.3814 280° West 265 305 8,600 2,644 Climbing New York Center
Tue 02:07:17 PM 40.6703 -74.4756 289° West 284 327 10,500 1,438 Climbing New York Center
Tue 02:08:18 PM 40.6828 -74.5994 278° West 325 374 11,500 1,667 Climbing New York Center
Tue 02:10:17 PM 40.6836 -74.8869 270° West 393 452 15,500 1,867 Climbing New York Center
Tue 02:11:18 PM 40.6828 -75.0292 270° West 393 452 17,100 1,636 Climbing New York Center
Tue 02:12:18 PM 40.6450 -75.1525 248° West 402 463 18,800 1,550 Climbing New York Center
Tue 02:13:18 PM 40.5878 -75.2883 241° Southwest 407 468 20,200 1,537 Climbing New York Center
Tue 02:14:19 PM 40.5261 -75.4208 239° Southwest 419 482 21,900 1,613 Climbing New York Center
Tue 02:15:17 PM 40.4667 -75.5558 240° Southwest 430 495 23,400 1,350 Climbing New York Center
Tue 02:16:19 PM 40.4050 -75.6906 239° Southwest 435 501 24,600 893 Climbing New York Center
Tue 02:17:18 PM 40.3386 -75.8303 238° Southwest 435 501 25,200 800 Climbing New York Center
Tue 02:18:19 PM 40.2608 -75.9850 237° Southwest 450 518 26,200 1,050 Climbing New York Center
Tue 02:19:18 PM 40.1961 -76.1297 240° Southwest 461 531 27,300 1,322 Climbing New York Center
Tue 02:20:17 PM 40.1292 -76.2711 238° Southwest 462 532 28,800 1,361 Climbing New York Center
Tue 02:21:17 PM 40.0683 -76.4103 240° Southwest 457 526 30,000 1,100 Climbing New York Center
Tue 02:22:17 PM 40.0033 -76.5458 238° Southwest 452 520 31,000 686 Climbing New York Center
Tue 02:24:12 PM 39.8911 -76.7869 239° Southwest 435 501 32,000 335 Climbing Washington Center
Tue 02:25:16 PM 39.8281 -76.9219 239° Southwest 435 501 32,000  Level Washington Center
Tue 02:26:19 PM 39.7511 -77.0825 238° Southwest 436 502 32,000  Level Washington Center
Tue 02:27:20 PM 39.6900 -77.2169 239° Southwest 436 502 32,000  Level Washington Center
Tue 02:28:21 PM 39.6258 -77.3497 238° Southwest 437 503 32,000  Level Washington Center
Tue 02:29:25 PM 39.5625 -77.4833 238° Southwest 437 503 32,000  Level Washington Center
Tue 02:30:26 PM 39.4992 -77.6147 238° Southwest 436 502 32,000  Level Washington Center
Tue 02:31:29 PM 39.4233 -77.7722 238° Southwest 435 501 32,000  Level Washington Center
Tue 02:32:31 PM 39.3622 -77.9047 239° Southwest 435 501 32,000  Level Washington Center
Tue 02:33:34 PM 39.3092 -78.0417 243° Southwest 430 495 32,000  Level Washington Center
Tue 02:34:35 PM 39.2547 -78.1808 243° Southwest 431 496 32,000  Level Washington Center
Tue 02:35:36 PM 39.1986 -78.3186 242° Southwest 433 498 32,000  Level Washington Center
Tue 02:36:40 PM 39.1319 -78.4831 242° Southwest 434 499 32,000  Level Washington Center
Tue 02:37:43 PM 39.0761 -78.6222 243° Southwest 435 501 32,000 144 Level Washington Center
Tue 02:38:45 PM 39.0200 -78.7589 242° Southwest 435 501 32,300 390 Climbing Washington Center
Tue 02:39:46 PM 38.9636 -78.8967 242° Southwest 435 501 32,800 336 Climbing Washington Center
Tue 02:40:50 PM 38.9094 -79.0314 243° Southwest 431 496 33,000 333 Climbing Washington Center
Tue 02:41:52 PM 38.8453 -79.1925 243° Southwest 424 488 33,500 492 Climbing Washington Center
Tue 02:42:52 PM 38.8161 -79.3358 255° West 420 483 34,000 242 Climbing Washington Center
Tue 02:43:56 PM 38.7900 -79.4778 257° West 412 474 34,000  Level Washington Center
Tue 02:44:57 PM 38.7617 -79.6325 257° West 413 475 34,000  Level Washington Center
Tue 02:46:01 PM 38.7350 -79.7756 257° West 412 474 34,000  Level Washington Center
Tue 02:47:08 PM 38.7031 -79.9506 257° West 414 476 34,000  Level Indianapolis Center
Tue 02:48:10 PM 38.6767 -80.0936 257° West 414 476 34,000  Level Indianapolis Center
Tue 02:49:12 PM 38.6494 -80.2378 256° West 414 476 34,000  Level Indianapolis Center
Tue 02:50:14 PM 38.6219 -80.3825 256° West 415 478 34,000  Level Indianapolis Center
Tue 02:51:16 PM 38.5947 -80.5267 256° West 415 478 34,000  Level Indianapolis Center
Tue 02:52:18 PM 38.5669 -80.6714 256° West 416 479 34,000  Level Indianapolis Center
Tue 02:53:20 PM 38.5378 -80.8169 256° West 417 480 34,000  Level Indianapolis Center
Tue 02:54:22 PM 38.5042 -80.9897 256° West 418 481 34,000  Level Indianapolis Center
Tue 02:55:24 PM 38.4761 -81.1342 256° West 418 481 34,000  Level Indianapolis Center
Tue 02:56:26 PM 38.4478 -81.2778 256° West 417 480 34,000  Level Indianapolis Center
Tue 02:57:28 PM 38.4194 -81.4214 256° West 416 479 34,000  Level Indianapolis Center
Tue 02:58:30 PM 38.3900 -81.5642 255° West 416 479 34,000  Level Indianapolis Center
Tue 02:59:32 PM 38.3622 -81.7064 256° West 415 478 34,000  Level Indianapolis Center
Tue 03:00:34 PM 38.3294 -81.8475 254° West 414 476 34,000  Level Indianapolis Center
Tue 03:01:36 PM 38.2881 -81.9875 249° West 416 479 34,000  Level Indianapolis Center
Tue 03:02:38 PM 38.2411 -82.1567 251° West 418 481 34,000  Level Indianapolis Center
Tue 03:03:40 PM 38.2003 -82.2992 250° West 425 489 34,000  Level Indianapolis Center
Tue 03:04:42 PM 38.1594 -82.4444 250° West 432 497 34,000  Level Indianapolis Center
Tue 03:05:44 PM 38.1181 -82.5872 250° West 432 497 34,000  Level Indianapolis Center
Tue 03:06:46 PM 38.0756 -82.7358 250° West 442 509 34,000  Level Indianapolis Center
Tue 03:07:48 PM 38.0331 -82.8819 250° West 442 509 34,000  Level Indianapolis Center
Tue 03:08:50 PM 37.9842 -83.0503 250° West 440 506 34,000  Level Indianapolis Center
Tue 03:09:52 PM 37.9428 -83.1936 250° West 436 502 34,000  Level Indianapolis Center
Tue 03:10:53 PM 37.9000 -83.3375 249° West 436 502 34,000  Level Indianapolis Center
Tue 03:11:55 PM 37.8586 -83.4786 250° West 433 498 34,000  Level Indianapolis Center
Tue 03:12:57 PM 37.8167 -83.6186 249° West 431 496 34,000  Level Indianapolis Center
Tue 03:13:59 PM 37.7678 -83.7856 250° West 432 497 34,000  Level Indianapolis Center
Tue 03:15:01 PM 37.7250 -83.9272 249° West 432 497 34,000  Level Indianapolis Center
Tue 03:16:03 PM 37.6808 -84.0700 249° West 432 497 34,000  Level Indianapolis Center
Tue 03:17:05 PM 37.6383 -84.2117 249° West 433 498 34,000  Level Indianapolis Center
Tue 03:18:07 PM 37.5944 -84.3531 249° West 433 498 34,000  Level Indianapolis Center
Tue 03:19:09 PM 37.5511 -84.4939 249° West 433 498 34,000  Level Indianapolis Center
Tue 03:20:10 PM 37.5008 -84.6572 249° West 431 496 34,000  Level Indianapolis Center
Tue 03:21:12 PM 37.4575 -84.7975 249° West 431 496 34,000  Level Indianapolis Center
Tue 03:22:14 PM 37.4131 -84.9386 248° West 431 496 34,000  Level Indianapolis Center
Tue 03:23:16 PM 37.3694 -85.0778 249° West 431 496 34,000  Level Indianapolis Center
Tue 03:24:18 PM 37.3250 -85.2194 249° West 431 496 34,000  Level Indianapolis Center
Tue 03:25:20 PM 37.2806 -85.3575 248° West 431 496 34,000  Level Indianapolis Center
Tue 03:26:22 PM 37.2317 -85.5133 249° West 430 495 34,000  Level Indianapolis Center
Tue 03:27:23 PM 37.1858 -85.6539 248° West 430 495 34,000  Level Indianapolis Center
Tue 03:28:25 PM 37.1414 -85.7936 248° West 430 495 34,000  Level Indianapolis Center
Tue 03:29:27 PM 37.0947 -85.9336 247° West 430 495 34,000  Level Indianapolis Center
Tue 03:29:59 PM 37.0653 -86.0264 248° West 431 496 34,000  Level Memphis Center
Tue 03:31:01 PM 37.0206 -86.1658 248° West 431 496 34,000  Level Memphis Center
Tue 03:32:04 PM 36.9756 -86.3031 248° West 429 494 34,000  Level Memphis Center
Tue 03:33:06 PM 36.9297 -86.4428 248° West 429 494 34,000  Level Memphis Center
Tue 03:34:08 PM 36.8811 -86.5794 246° West 429 494 34,000  Level Memphis Center
Tue 03:35:10 PM 36.8311 -86.7167 246° West 429 494 34,000  Level Memphis Center
Tue 03:36:12 PM 36.7742 -86.8758 246° West 430 495 34,000  Level Memphis Center
Tue 03:37:14 PM 36.7247 -87.0119 246° West 430 495 34,000  Level Memphis Center
Tue 03:38:16 PM 36.6758 -87.1478 246° West 430 495 34,000  Level Memphis Center
Tue 03:39:19 PM 36.6258 -87.2825 245° Southwest 430 495 34,000  Level Memphis Center
Tue 03:40:21 PM 36.5761 -87.4167 245° Southwest 429 494 34,000  Level Memphis Center
Tue 03:41:23 PM 36.5261 -87.5508 245° Southwest 429 494 34,000  Level Memphis Center
Tue 03:42:25 PM 36.4681 -87.7075 245° Southwest 428 493 34,000  Level Memphis Center
Tue 03:43:27 PM 36.4175 -87.8419 245° Southwest 428 493 34,000  Level Memphis Center
Tue 03:44:29 PM 36.3681 -87.9758 245° Southwest 427 491 34,000  Level Memphis Center
Tue 03:45:31 PM 36.3172 -88.1100 245° Southwest 427 491 34,000  Level Memphis Center
Tue 03:46:34 PM 36.2667 -88.2431 245° Southwest 427 491 34,000  Level Memphis Center
Tue 03:47:36 PM 36.2147 -88.3769 244° Southwest 427 491 34,000  Level Memphis Center
Tue 03:48:38 PM 36.1625 -88.5147 245° Southwest 434 499 34,000  Level Memphis Center
Tue 03:49:40 PM 36.0983 -88.6800 244° Southwest 438 504 34,000  Level Memphis Center
Tue 03:50:42 PM 36.0458 -88.8181 245° Southwest 440 506 34,000  Level Memphis Center
Tue 03:51:44 PM 35.9922 -88.9550 244° Southwest 440 506 34,000  Level Memphis Center
Tue 03:52:46 PM 35.9386 -89.0917 244° Southwest 440 506 34,000  Level Memphis Center
Tue 03:53:48 PM 35.8858 -89.2275 244° Southwest 440 506 34,000 -48 Level Memphis Center
Tue 03:54:51 PM 35.8328 -89.3622 244° Southwest 438 504 33,900  Descending Memphis Center
Tue 03:55:53 PM 35.7794 -89.4992 244° Southwest 438 504 34,000 435 Climbing Memphis Center
Tue 03:56:55 PM 35.7142 -89.6633 244° Southwest 440 506 34,800 871 Climbing Memphis Center
Tue 03:57:57 PM 35.6614 -89.7983 244° Southwest 440 506 35,800 581 Climbing Memphis Center
Tue 03:58:59 PM 35.6094 -89.9311 244° Southwest 439 505 36,000 96 Climbing Memphis Center
Tue 04:00:02 PM 35.5564 -90.0611 243° Southwest 433 498 36,000  Level Memphis Center
Tue 04:01:04 PM 35.5033 -90.1947 244° Southwest 433 498 36,000  Level Memphis Center
Tue 04:02:06 PM 35.4397 -90.3525 244° Southwest 434 499 36,000 -48 Level Memphis Center
Tue 04:03:08 PM 35.3861 -90.4822 243° Southwest 433 498 35,900  Descending Memphis Center
Tue 04:04:10 PM 35.3325 -90.6144 244° Southwest 433 498 36,000 48 Climbing Memphis Center
Tue 04:05:12 PM 35.2786 -90.7469 244° Southwest 434 499 36,000  Level Memphis Center
Tue 04:06:14 PM 35.2239 -90.8792 243° Southwest 434 499 36,000  Level Memphis Center
Tue 04:07:17 PM 35.1694 -91.0128 244° Southwest 436 502 36,000  Level Memphis Center
Tue 04:08:19 PM 35.1031 -91.1719 243° Southwest 439 505 36,000  Level Memphis Center
Tue 04:09:21 PM 35.0483 -91.3053 243° Southwest 439 505 36,000  Level Memphis Center
Tue 04:10:23 PM 34.9875 -91.4467 242° Southwest 440 506 36,000  Level Memphis Center
Tue 04:11:25 PM 34.9314 -91.5797 243° Southwest 441 507 36,000  Level Memphis Center
Tue 04:12:27 PM 34.8797 -91.7028 243° Southwest 441 507 36,000  Level Memphis Center
Tue 04:13:29 PM 34.8206 -91.8456 243° Southwest 441 507 36,000  Level Memphis Center
Tue 04:14:32 PM 34.7639 -91.9786 243° Southwest 441 507 36,000  Level Memphis Center
Tue 04:15:34 PM 34.6956 -92.1372 242° Southwest 441 507 36,000  Level Memphis Center
Tue 04:16:36 PM 34.6522 -92.2778 249° West 446 513 36,000  Level Memphis Center
Tue 04:17:38 PM 34.6153 -92.4189 252° West 442 509 36,000  Level Memphis Center
Tue 04:18:40 PM 34.5769 -92.5617 252° West 442 509 36,000  Level Memphis Center
Tue 04:19:42 PM 34.5394 -92.7036 252° West 442 509 36,000  Level Memphis Center
Tue 04:20:44 PM 34.5008 -92.8458 252° West 442 509 36,000  Level Memphis Center
Tue 04:21:47 PM 34.4556 -93.0156 252° West 442 509 36,000  Level Memphis Center
Tue 04:22:49 PM 34.4175 -93.1567 252° West 442 509 36,000  Level Memphis Center
Tue 04:23:51 PM 34.3797 -93.2969 252° West 441 507 36,000  Level Memphis Center
Tue 04:24:53 PM 34.3419 -93.4364 252° West 441 507 36,000  Level Memphis Center
Tue 04:26:44 PM 34.2686 -93.7056 252° West 439 505 36,000  Level Fort Worth Center
Tue 04:27:46 PM 34.2314 -93.8428 252° West 438 504 36,000  Level Fort Worth Center
Tue 04:28:48 PM 34.1928 -93.9792 251° West 434 499 36,000 -97 Level Fort Worth Center
Tue 04:29:50 PM 34.1544 -94.1181 252° West 435 501 35,800 -528 Descending Fort Worth Center
Tue 04:30:53 PM 34.1156 -94.2558 251° West 437 503 34,900 -1,008 Descending Fort Worth Center
Tue 04:31:55 PM 34.0686 -94.4253 252° West 445 512 33,700 -823 Descending Fort Worth Center
Tue 04:32:57 PM 34.0300 -94.5722 252° West 459 528 33,200 -484 Descending Fort Worth Center
Tue 04:33:59 PM 33.9942 -94.7186 254° West 460 529 32,700 -677 Descending Fort Worth Center
Tue 04:35:01 PM 33.9433 -94.8622 247° West 466 536 31,800 -912 Descending Fort Worth Center
Tue 04:36:04 PM 33.8989 -95.0092 250° West 467 537 30,800 -1,008 Descending Fort Worth Center
Tue 04:37:06 PM 33.8456 -95.1872 250° West 471 542 29,700 -1,016 Descending Fort Worth Center
Tue 04:38:08 PM 33.8019 -95.3331 250° West 470 541 28,700 -1,194 Descending Fort Worth Center
Tue 04:40:12 PM 33.7194 -95.6208 251° West 456 525 26,000 -1,806 Descending Fort Worth Center
Tue 04:41:14 PM 33.6783 -95.7661 251° West 458 527 23,100 -2,952 Descending Fort Worth Center
Tue 04:42:16 PM 33.6383 -95.9417 255° West 451 519 19,900 -2,880 Descending Fort Worth Center
Tue 04:43:19 PM 33.5903 -96.0733 246° West 444 511 17,100 -2,880 Descending Fort Worth Center
Tue 04:44:21 PM 33.5444 -96.2083 248° West 410 472 13,900 -2,952 Descending Fort Worth Center
Tue 04:45:23 PM 33.4764 -96.3053 230° Southwest 385 443 11,000 -1,403 Descending Fort Worth Center
Tue 04:46:25 PM 33.4031 -96.3925 225° Southwest 346 398 11,000 -290 Level Fort Worth Center
Tue 04:47:27 PM 33.3494 -96.4647 228° Southwest 292 336 10,400 -1,065 Descending Fort Worth Center
Tue 04:48:29 PM 33.3169 -96.5575 247° West 284 327 8,800 -1,488 Descending Fort Worth Center
Tue 04:49:32 PM 33.2867 -96.6428 247° West 282 325 7,300 -1,584 Descending Fort Worth Center
Tue 04:50:34 PM 33.2544 -96.7306 246° West 273 314 5,500 -1,113 Descending Fort Worth Center
Tue 04:51:36 PM 33.2242 -96.8125 246° West 273 314 5,000 -242 Descending Fort Worth Center
Tue 04:52:38 PM 33.1872 -96.8978 243° Southwest 275 316 5,000 -532 Level Fort Worth Center
Tue 04:53:40 PM 33.1472 -96.9717 237° Southwest 268 308 3,900 -960 Descending Fort Worth Center
Tue 04:54:43 PM 33.0861 -97.0097 208° Southwest 241 277 3,000 -624 Descending Fort Worth Center
Tue 04:55:45 PM 33.0278 -97.0219 190° South 214 246 2,600 -581 Descending Fort Worth Center
Tue 04:56:47 PM 32.9747 -97.0261 184° South 178 205 1,800 -774 Descending Fort Worth Center
Tue 04:57:49 PM 32.9375 -97.0264 180° South 136 157 1,000 -629 Descending Fort Worth Center
Tue 04:58:51 PM 32.8961 -97.0256 179° South 134 154 500 -484 Descending Fort Worth Center
Tue 05:00:00 PM 32.8833 -97.0333 185° South  Level FlightAware Approximate

Login

Don't have an account? Register now (free) for customized features, flight alerts, and more!